Regional Weather Roundup
Issued by NWS

Home | Current Version | Previous Version | Text Only | Print | Product List | Glossary On
Versions: 1 2 3 4 5 6 7 8 9 10 11 12 13 14 15 16 17 18 19 20 21 22 23 24 25 26 27 28 29 30 31 32 33 34 35 36 37 38 39 40 41 42 43 44 45 46 47 48 49 50
000
ASUS44 KLIX 271510
RWRLA
LOUISIANA WEATHER ROUNDUP
NATIONAL WEATHER SERVICE NEW ORLEANS LA
1000 AM CDT WED AUG 27 2014

NOTE: "FAIR" INDICATES FEW OR NO CLOUDS BELOW 12,000 FEET WITH NO
      SIGNIFICANT WEATHER AND/OR OBSTRUCTIONS TO VISIBILITY.
      SKY/WX - SKY CONDITION AND SIGNIFICANT WEATHER.
      TMP - AIR TEMPERATURE.    DP   - DEWPOINT TEMPERATURE.
      RH  - RELATIVE HUMIDITY.  PRES - PRESSURE.
      HX  - HEAT INDEX.         WCI  - WIND CHILL INDEX.

*  THESE STATIONS ARE NOT NWS OR FAA STATIONS AND ARE NOT UNDER
   NWS QUALITY CONTROL.

LAZ040-048-061>063-065-066-069-271600-
SOUTHEAST LOUISIANA

CITY           SKY/WX    TMP DP  RH WIND       PRES   REMARKS
N.O. AUDUBON   NOT AVBL
N.O. INTL ARPT PTSUNNY   86  74  67 NE14      30.02R
N.O. LAKEFRONT PTSUNNY   85  74  69 NE9       30.03R
N.O. DOWNTOWN* FAIR      84  72  65 E5        30.02S
SLIDELL        MOSUNNY   87  72  60 N5        30.02R
BATON ROUGE    SUNNY     85  73  67 E10       30.03R
BOOTHVILLE     SUNNY     87  75  67 E13       30.01R HX  96
BELLE CHASSE   PTSUNNY   86  71  60 NE7       30.01R
BOGALUSA*      FAIR      84  69  60 CALM      30.06R
GALLIANO*      NOT AVBL
NEW ROADS*     FAIR      84  73  69 E6        30.02F
GONZALES*      CLOUDY    83  77  82 NE7       30.02S
HAMMOND*       SUNNY     86  68  54 E6        30.05R
HOUMA*         MOSUNNY   86  75  70 NE7       30.00R HX  95
PORT FOURCHON* MOSUNNY   86  75  70 E12G17    30.01R HX  95

$$

LAZ041-044-053-054-271600-
SOUTHWEST LOUISIANA

CITY           SKY/WX    TMP DP  RH WIND       PRES   REMARKS
LAKE CHARLES   MOSUNNY   83  74  74 E12       30.00S
LAFAYETTE      MOSUNNY   81  74  79 E6        30.01S
PATTERSON        N/A     82  79  89 E10       30.04R
SALT POINT       N/A     87  77  72 SE9       29.99R HX  99
NEW IBERIA     MOSUNNY   84  76  76 NE8       30.02R
CHENAULT AIRPK NOT AVBL

$$

LAZ027-028-271600-
CENTRAL LOUISIANA

CITY           SKY/WX    TMP DP  RH WIND       PRES   REMARKS
FORT POLK      PTSUNNY   84  68  58 E5        30.04R
ALEXANDRIA INT SUNNY     84  68  58 E7        30.02S
ALEXANDRIA     SUNNY     83  69  62 VRB3      30.04S

$$

LAZ001-002-271600-
NORTHWEST LOUISIANA

CITY           SKY/WX    TMP DP  RH WIND       PRES   REMARKS
SHREVEPORT     MOSUNNY   88  65  46 CALM      30.06R
BARKSDALE AFB  MOSUNNY   85  66  53 E2        30.07R
DTN SHREVEPORT MOSUNNY   83  68  60 CALM      30.07R

$$

LAZ014-016-271600-
NORTHEAST LOUISIANA

CITY           SKY/WX    TMP DP  RH WIND       PRES   REMARKS
MONROE         SUNNY     85  68  56 VRB5      30.07S
TALLULAH       SUNNY     85  69  58 E6        30.06S

$$



USA.gov is the U.S. government's official web portal to all federal, state and local government web resources and services.